Weather History for Florala, AL

Change the Weather History Date:

Saturday, April 13, 2013

  Actual Average (KCEW) Record (KCEW)
Temperature  
Mean Temperature 62 °F -  
Max Temperature 79 °F 80 °F 89 °F (2001)
Min Temperature 45 °F 54 °F 33 °F (2004)
Degree Days  
Heating Degree Days 3    
Growing Degree Days 12 (Base 50)    
Moisture  
Dew Point 46 °F    
Average Humidity 57    
Maximum Humidity 90    
Minimum Humidity 27    
Precipitation  
Precipitation 0.00 in - - ()
Sea Level Pressure  
Sea Level Pressure 30.00 in    
Wind  
Wind Speed 2 mph (NNE)    
Max Wind Speed 9 mph    
Max Gust Speed -    
Visibility 10 miles    
Events      
Averages and records for this station are not official NWS values.
T = Trace of Precipitation, MM = Missing Value Source: NWS Daily Summary

Daily Weather History Graph

Daily Weather History Graph

Search for Another Location

Airport:

Trip Planner

Search our weather history database for the weather conditions in past years. The results will help you decide how hot, cold, wet, or windy it might be!

Date:

Astronomy

Apr. 13, 2013 Rise Set
Actual Time 6:19 AM CDT 7:12 PM CDT
Civil Twilight 5:54 AM CDT 7:37 PM CDT
Nautical Twilight 5:25 AM CDT 8:06 PM CDT
Astronomical Twilight 4:55 AM CDT 8:36 PM CDT
Moon 8:20 AM CDT (4/13) 10:24 PM CDT (4/13)
Length of Visible Light 13h 42m
Length of Day
12h 53m
Waxing Crescent, 10% of the Moon is Illuminated
Apr 13
Waxing Crescent
Apr 18
First Quarter
Apr 25
Full
May 2
Last Quarter
May 9
New

Hourly Weather History & Observations

Time (CDT) Temp. Dew Point Humidity Pressure Visibility Wind Dir Wind Speed Gust Speed Precip Events Conditions
12:58 AM 52.0 °F 46.9 °F 83% 29.99 in 10.0 mi Calm Calm - N/A   Clear
1:58 AM 50.0 °F 46.0 °F 86% 29.99 in 10.0 mi Calm Calm - N/A   Clear
2:58 AM 48.9 °F 45.0 °F 86% 29.99 in 10.0 mi Calm Calm - N/A   Clear
3:58 AM 50.0 °F 44.1 °F 80% 29.99 in 10.0 mi North 4.6 mph - N/A   Clear
4:58 AM 48.0 °F 44.1 °F 86% 30.00 in 10.0 mi Calm Calm - N/A   Clear
5:58 AM 45.0 °F 42.1 °F 90% 30.01 in 10.0 mi Calm Calm - N/A   Clear
6:58 AM 46.9 °F 44.1 °F 90% 30.04 in 10.0 mi Calm Calm - N/A   Clear
7:58 AM 59.0 °F 46.9 °F 64% 30.06 in 10.0 mi North 4.6 mph - N/A   Clear
8:58 AM 64.0 °F 46.9 °F 54% 30.06 in 10.0 mi NNE 8.1 mph - N/A   Clear
9:58 AM 70.0 °F 45.0 °F 41% 30.06 in 10.0 mi NE 8.1 mph - N/A   Clear
10:58 AM 71.1 °F 45.0 °F 39% 30.06 in 10.0 mi NNE 9.2 mph - N/A   Unknown
11:58 AM 73.0 °F 44.1 °F 35% 30.05 in 10.0 mi NNE 6.9 mph - N/A   Clear
12:58 PM 75.9 °F 42.1 °F 30% 30.03 in 10.0 mi Calm Calm - N/A   Clear
1:58 PM 78.1 °F 45.0 °F 31% 30.01 in 10.0 mi Variable 4.6 mph - N/A   Clear
2:58 PM 79.0 °F 43.0 °F 28% 29.99 in 10.0 mi Variable 4.6 mph - N/A   Clear
3:58 PM 79.0 °F 42.1 °F 27% 29.98 in 10.0 mi Variable 5.8 mph - N/A   Clear
4:58 PM 79.0 °F 42.1 °F 27% 29.97 in 10.0 mi Calm Calm - N/A   Clear
5:58 PM 78.1 °F 44.1 °F 30% 29.97 in 10.0 mi East 6.9 mph - N/A   Clear
6:58 PM 68.0 °F 51.1 °F 55% 29.97 in 10.0 mi Calm Calm - N/A   Clear
7:58 PM 64.9 °F 48.9 °F 56% 29.95 in 10.0 mi NE 3.5 mph - N/A   Clear
8:58 PM 68.0 °F 46.0 °F 45% 29.96 in 10.0 mi NE 3.5 mph - N/A   Clear
9:58 PM 63.0 °F 52.0 °F 67% 29.99 in 10.0 mi Calm Calm - N/A   Clear
10:58 PM 64.9 °F 48.9 °F 56% 29.99 in 10.0 mi Calm Calm - N/A   Clear
11:58 PM 59.0 °F 52.0 °F 78% 29.98 in 10.0 mi Calm Calm - N/A   Clear